Retour au catalogue

STARLINK-5143

ActifCommunicationsVLEO
NORAD 54089·PAYLOAD·🇺🇸 United States

Lancé Oct 20, 2022 depuis Cape Canaveral Space Force Station

Loading…

Prochains Passages (prochaines 24 heures)

TLE

FraisSource: CelesTrak SupGP

Époque: Sep 15, 2026, 02:15 UTC

1 54089C 22136AQ  26258.09423611  .00510050  00000+0  21076-1 0  2584
2 54089  53.1608 202.4910 0001242  88.5184  78.1905 15.23215222    18

Suivez STARLINK-5143 en temps réel avec AllMySat

Download on the App Store